Tracking 20721 objects as of 1-Jun-2020
HD Live streaming from Space Station
objects crossing your sky now

IUS DEB

Track IUS DEB now!
10-day predictions


NORAD ID: 43367
Int'l Code: 1999-040Q
Perigee: 647.5 km
Apogee: 9,631.3 km
Inclination: 28.2 °
Period: 204.8 minutes
Semi major axis: 11510 km
RCS: Unknown
Launch date: July 23, 1999
Source: United States (US)
Launch site: AIR FORCE EASTERN TEST RANGE (AFETR)

Note: This is SATELLITE DEBRIS
aabbcc
Your satellite tracking list
Your tracking list is empty




NASA's NSSDC Master Catalog

Two Line Element Set (TLE):
1 43367U 99040Q   20128.15186691 -.00000864  00000-0 -24693-2 0  9991
2 43367  28.2125  72.9112 3902503 195.9005 147.2280  7.03020954189842
Source of the keplerian elements: AFSPC